Tracking 27420 objects as of 28-May-2023
HD Live streaming from Space Station
objects crossing your sky now

EXPLORER 22

Track EXPLORER 22 now!
10-day predictions
EXPLORER 22 is classified as:


NORAD ID: 899
Int'l Code: 1964-064A
Perigee: 873.8 km
Apogee: 1,051.2 km
Inclination: 79.7 °
Period: 104.2 minutes
Semi major axis: 7333 km
RCS: 1.5662 m2 (large)
Launch date: October 10, 1964
Source: United States (US)
Launch site: AIR FORCE WESTERN TEST RANGE (AFWTR)
Your satellite tracking list
Your tracking list is empty




NASA's NSSDC Master Catalog

Two Line Element Set (TLE):
1 00899U 64064A   23147.84237856  .00000246  00000-0  20974-3 0  9993
2 00899  79.6905 267.9977 0120951 194.4269 165.3419 13.82395424950682
Source of the keplerian elements: AFSPC